This is the latest recevied weather packets stored in our database for station/object IZ5MJO-13. If no packets are shown the sender has not sent any weather packets the latest 10 day(s).
| Time | Temp. | Humidity | Pressure | Rain* | Wind** | Luminosity | Snow |
|---|---|---|---|---|---|---|---|
| 1788159906 | 73° F | 57% | 755 mmHg | - | - | - | - |
| 1788159006 | 72° F | 62% | 755 mmHg | - | - | - | - |
| 1788158106 | 70° F | 62% | 754.9 mmHg | - | - | - | - |
| 1788157206 | 71° F | 66% | 754.9 mmHg | - | - | - | - |
| 1788156305 | 70° F | 63% | 754.8 mmHg | - | - | - | - |
| 1788155410 | 69° F | 61% | 754.9 mmHg | - | - | - | - |
| 1788154510 | 69° F | 66% | 754.8 mmHg | - | - | - | - |
| 1788153610 | 69° F | 68% | 754.6 mmHg | - | - | - | - |
| 1788152709 | 68° F | 68% | 754.6 mmHg | - | - | - | - |
| 1788151809 | 68° F | 67% | 754.6 mmHg | - | - | - | - |
| 1788150909 | 68° F | 66% | 754.5 mmHg | - | - | - | - |
| 1788150008 | 68° F | 67% | 754.4 mmHg | - | - | - | - |
| 1788149108 | 69° F | 66% | 754.5 mmHg | - | - | - | - |
| 1788147308 | 69° F | 65% | 754.3 mmHg | - | - | - | - |
| 1788146407 | 69° F | 65% | 754.5 mmHg | - | - | - | - |
| 1788145507 | 70° F | 64% | 754.4 mmHg | - | - | - | - |
| 1788144607 | 70° F | 63% | 754.5 mmHg | - | - | - | - |
| 1788143707 | 70° F | 62% | 754.5 mmHg | - | - | - | - |
| 1788142807 | 69° F | 62% | 754.6 mmHg | - | - | - | - |
| 1788141906 | 69° F | 62% | 754.6 mmHg | - | - | - | - |
| 1788141006 | 69° F | 64% | 754.5 mmHg | - | - | - | - |
| 1788140106 | 69° F | 63% | 754.6 mmHg | - | - | - | - |
| 1788139205 | 69° F | 63% | 754.6 mmHg | - | - | - | - |
| 1788138305 | 69° F | 63% | 754.6 mmHg | - | - | - | - |
| 1788137405 | 69° F | 62% | 754.6 mmHg | - | - | - | - |
* Rain since midnight (hover to see other rain measurements)
** Current wind speed in m/s (hover to see current wind gust speed)